Volver al catálogo

ARABSAT 5A

ActivoComunicacionesGEO
NORAD 36745·PAYLOAD·🇦🇪 UAE🇸🇦 Saudi Arabia

Lanzado Jun 26, 2010 desde Guiana Space Centre

Loading…

TLE

ActualizadoSource: Space-Track

Época: Sep 14, 2026, 13:56 UTC

1 36745U 10032B   26257.58116771  .00000146  00000-0  00000-0 0  9990
2 36745   0.2622  76.9520 0004073  91.4559  64.8698  1.00270458 59546

Sigue ARABSAT 5A en tiempo real con AllMySat

Download on the App Store